Terminal Aerodrome Forecast
Issued by NWS Pittsburgh, PA

Current Version | Previous Version | Graphics & Text | Print | Product List | Glossary On
Versions: 1 2 3 4 5 6 7 8 9 10 11 12 13 14 15 16 17 18 19 20 21 22 23 24 25 26 27 28 29 30
000
FTUS41 KPBZ 010900 AAA
TAFPIT
TAF AMD
KPIT 010907Z 0109/0212 01003KT 5SM BR OVC003
     FM011300 10005KT 5SM BR BKN020
     FM011700 12005KT P6SM BKN035
     FM012300 14005KT P6SM BKN250=

USA.gov is the U.S. government's official web portal to all federal, state and local government web resources and services.